Flag for Norway Weather past 2 weeks in Gjøvik, Norway

Now
51 °F

Cool.


Feels Like: 51 °F
Forecast: 42 / 60 °F
Wind: 1 mph from Southeast

Location: Lillehammer-Saetherengen

Current Time: Sep 3, 2015 at 11:42:22 PM

Latest Report: Sep 3, 2015 at 11:00 PM


Visibility: N/A

Pressure: 29.91 "Hg

Humidity: 93%

Dew point: 49 °F

Location of GjøvikLocation

Historic Weather in Gjøvik — Graph

°F

Gjøvik temperature yesterday

Maximum temperature yesterday: 53 °F (at 5:00 PM)
Minimum temperature yesterday: 49 °F (at 11:00 PM)
Average temperature yesterday: 51 °F

Past Weeks' High & Low Weather Summary

 TemperatureHumidityPressure
High74 °F (Aug 23, 5:00 PM)96% (Aug 25, 8:00 AM)30.38 "Hg (Aug 25, 8:00 AM)
Low44 °F (Aug 30, 7:00 AM)30% (Aug 23, 4:00 PM)29.44 "Hg (Aug 27, 6:00 PM)
Average57 °F75%29.95 "Hg
* Reported Aug 19 10:00 PM — Sep 3 10:00 PM, Gjøvik, Weather by CustomWeather, © 2015

Note: Actual official high and low records may vary slightly from our data, if they occured in-between our weather recording intervals... More about our weather records

Advertising

Gjøvik weather history for previous 24 hours

 ConditionsComfort  
Time TempWeatherWind HumidityBarometerVisibility
10:00 PM
Thu, Sep 3
52 °FCool.1 mph93%29.91 "HgN/A
9:00 PM52 °FCool.1 mph93%29.90 "HgN/A
8:00 PM53 °FCool.No wind91%29.89 "HgN/A
7:00 PM54 °FCool.1 mph89%29.89 "HgN/A
6:00 PM55 °FCool.1 mph84%29.89 "HgN/A
5:00 PM54 °FCool.1 mph87%29.88 "HgN/A
4:00 PM57 °FCool.1 mph76%29.88 "HgN/A
3:00 PM55 °FCool.1 mph86%29.89 "HgN/A
2:00 PM54 °FCool.1 mph89%29.89 "HgN/A
1:00 PM53 °FCool.1 mph89%29.90 "HgN/A
12:00 PM52 °FCool.1 mph90%29.89 "HgN/A
11:00 AM52 °FCool.No wind90%29.89 "HgN/A
10:00 AM51 °FCool.1 mph92%29.88 "HgN/A
9:00 AM49 °FCool.1 mph95%29.87 "HgN/A
8:00 AM48 °FCool.1 mph95%29.87 "HgN/A
7:00 AM48 °FCool.1 mph94%29.87 "HgN/A
6:00 AM48 °FCool.2 mph95%29.85 "HgN/A
4:00 AM48 °FCool.1 mph95%29.86 "HgN/A
3:00 AM48 °FCool.1 mph95%29.86 "HgN/A
2:00 AM48 °FCool.No wind95%29.86 "HgN/A
1:00 AM49 °FCool.1 mph94%29.86 "HgN/A
12:00 AM49 °FCool.1 mph94%29.85 "HgN/A
11:00 PM
Wed, Sep 2
49 °FCool.1 mph93%29.85 "HgN/A
Weather by CustomWeather, © 2015

See weather overviewHow to use our weather pages